HISAKI (SPRINT-A)

Last updated on Fri Nov 07 2025 00:03:36 GMT+0000 (Coordinated Universal Time)

1 39253U 13049A 25310.19173846 .00000184 00000+0 16294-3 0 9996 2 39253 29.7200 273.7108 0136626 9.0670 351.2331 13.55513563601145
UTC large
Height (km)
Speed (km/s)
/
Latitude / Longitude
Inclination (degrees)
Orbital Period (minutes)
Azimuth
Elevation
Range (km)
Doppler Factor

Next 0 passes for location: London (51.5072 / 0.1276)

Sorry there are no passes over London.